�N����,����,�~����,�C��,���x,�C��,����,���ϕ���,�ő�u�ԕ���,�ő厞����,���˗�,�I�_���x,�n�����x,�ő啗���N��,DTYPE
"16/05/24","00:10",0.0,16.7,69.1,1009.3,297.9,0.8,1.2,298.9,0.00,11.1,21.0,"00:09:12",1
"16/05/24","00:20",0.0,16.8,68.3,1008.8,292.2,0.8,1.4,312.9,0.00,11.0,21.0,"00:11:28",1
"16/05/24","00:30",0.0,16.8,67.4,1009.0,302.1,0.8,1.4,321.9,0.00,10.8,20.9,"00:29:44",1
"16/05/24","00:40",0.0,16.8,71.3,1008.6,329.6,1.5,1.8,323.3,0.00,11.6,20.7,"00:31:36",1
"16/05/24","00:50",0.0,16.4,72.5,1008.6,307.5,0.8,1.3,320.1,0.00,11.5,20.7,"00:40:40",1
"16/05/24","01:00",0.0,16.2,70.8,1008.3,292.9,0.8,1.1,311.6,0.00,10.9,20.7,"00:50:32",1
"16/05/24","01:10",0.0,16.2,72.1,1008.3,327.1,1.3,1.9,341.7,0.00,11.2,20.6,"01:06:00",1
"16/05/24","01:20",0.0,16.1,72.1,1008.6,306.9,1.0,1.3,327.5,0.00,11.1,20.5,"01:10:08",1
"16/05/24","01:30",0.0,16.1,70.8,1008.6,292.6,0.8,1.2,306.4,0.00,10.8,20.1,"01:25:52",1
"16/05/24","01:40",0.0,16.1,71.5,1008.3,310.5,1.1,1.8,345.1,0.00,11.0,20.1,"01:38:16",1
"16/05/24","01:50",0.0,16.1,72.2,1008.6,303.5,1.0,1.3,331.1,0.00,11.1,20.3,"01:44:32",1
"16/05/24","02:00",0.0,16.0,74.0,1008.6,311.8,1.1,1.8,316.8,0.00,11.4,20.2,"01:59:04",1
"16/05/24","02:10",0.0,15.8,76.3,1008.8,316.8,1.3,2.0,328.8,0.00,11.7,20.2,"02:04:32",1
"16/05/24","02:20",0.0,15.4,77.3,1008.8,310.6,1.1,1.4,320.2,0.00,11.5,19.9,"02:11:44",1
"16/05/24","02:30",0.0,15.1,77.6,1008.6,294.2,0.8,1.1,315.3,0.00,11.3,19.9,"02:29:20",1
"16/05/24","02:40",0.0,15.1,77.3,1008.6,304.0,0.7,1.2,304.8,0.00,11.2,19.7,"02:30:08",1
"16/05/24","02:50",0.0,15.2,78.6,1008.6,312.2,1.2,1.4,332.0,0.00,11.5,19.9,"02:42:48",1
"16/05/24","03:00",0.0,14.9,80.4,1008.1,308.1,1.1,1.4,321.1,0.00,11.6,19.6,"02:50:40",1
"16/05/24","03:10",0.0,14.7,79.8,1008.6,301.6,0.8,1.2,297.7,0.00,11.3,19.8,"03:00:40",1
"16/05/24","03:20",0.0,14.8,81.0,1008.6,314.0,1.1,1.4,318.4,0.00,11.6,19.7,"03:15:12",1
"16/05/24","03:30",0.0,14.9,81.4,1008.3,318.2,1.3,1.7,342.5,0.00,11.8,19.5,"03:22:48",1
"16/05/24","03:40",0.0,14.7,82.5,1008.3,313.0,1.2,1.4,322.7,0.00,11.8,19.5,"03:30:08",1
"16/05/24","03:50",0.0,14.6,81.7,1008.6,304.6,1.1,1.7,322.8,0.00,11.5,19.4,"03:45:28",1
"16/05/24","04:00",0.0,14.5,81.7,1008.6,308.0,1.1,1.6,324.0,0.00,11.5,19.3,"03:58:16",1
"16/05/24","04:10",0.0,14.6,83.2,1008.6,311.7,1.3,1.7,323.5,0.00,11.8,19.2,"04:04:48",1
"16/05/24","04:20",0.0,14.5,84.2,1008.6,306.4,1.1,1.6,328.5,0.00,11.9,19.4,"04:12:48",1
"16/05/24","04:30",0.0,14.5,84.0,1008.3,309.9,1.0,1.3,315.0,0.00,11.9,19.2,"04:28:08",1
"16/05/24","04:40",0.0,14.6,84.0,1008.3,315.7,1.3,1.7,315.3,0.00,12.0,19.2,"04:32:24",1
"16/05/24","04:50",0.0,14.6,84.7,1008.6,305.4,1.2,1.7,325.7,0.00,12.1,18.9,"04:41:28",1
"16/05/24","05:00",0.0,14.5,85.6,1008.3,307.3,1.1,1.4,312.1,0.00,12.2,19.0,"04:56:16",1
"16/05/24","05:10",0.0,14.5,86.1,1008.6,302.0,1.2,1.6,317.8,0.00,12.2,18.8,"05:05:44",1
"16/05/24","05:20",0.0,14.6,85.6,1008.8,297.4,1.0,1.3,321.1,0.00,12.3,18.9,"05:10:48",1
"16/05/24","05:30",0.0,14.7,85.4,1008.3,316.8,1.2,1.4,319.4,0.00,12.3,19.1,"05:21:36",1
"16/05/24","05:40",0.0,15.0,85.5,1008.8,309.8,1.2,1.4,310.1,0.01,12.6,19.1,"05:32:48",1
"16/05/24","05:50",0.0,15.3,84.5,1008.8,325.7,1.2,1.7,324.6,0.01,12.7,18.9,"05:43:20",1
"16/05/24","06:00",0.0,16.0,83.9,1008.6,303.5,0.8,1.2,320.3,0.02,13.3,19.0,"05:52:40",1
"16/05/24","06:10",0.0,16.8,81.1,1008.6,310.2,0.6,1.1,326.1,0.04,13.6,19.0,"06:09:28",1
"16/05/24","06:20",0.0,17.9,78.5,1009.0,325.3,0.8,1.3,329.1,0.06,14.2,18.9,"06:11:28",1
"16/05/24","06:30",0.0,19.0,74.3,1009.0,316.8,0.3,1.1,335.4,0.08,14.4,19.1,"06:29:52",1
"16/05/24","06:40",0.0,19.2,70.0,1009.0,328.7,1.5,1.9,333.1,0.10,13.6,19.2,"06:33:04",1
"16/05/24","06:50",0.0,20.0,68.5,1009.0,300.5,0.7,1.4,314.2,0.12,14.1,19.3,"06:41:28",1
"16/05/24","07:00",0.0,20.7,68.0,1009.3,278.3,0.2,0.8,243.5,0.13,14.6,19.4,"06:52:48",1
"16/05/24","07:10",0.0,21.4,66.1,1008.8,293.7,0.2,0.8,318.5,0.17,14.9,19.7,"07:08:16",1
"16/05/24","07:20",0.0,21.9,59.8,1008.8,230.0,0.2,0.9,241.0,0.20,13.8,20.0,"07:17:44",1
"16/05/24","07:30",0.0,22.2,58.0,1008.6,341.8,0.7,1.8,347.3,0.21,13.6,20.0,"07:22:16",1
"16/05/24","07:40",0.0,23.1,58.7,1008.3,5.0,0.3,1.4,26.9,0.24,14.6,20.2,"07:31:36",1
"16/05/24","07:50",0.0,23.9,52.6,1008.1,108.3,0.2,0.9,109.2,0.25,13.7,20.7,"07:42:48",1
"16/05/24","08:00",0.0,24.1,51.1,1007.6,203.8,0.3,1.1,225.6,0.28,13.4,20.8,"07:58:56",1
"16/05/24","08:10",0.0,24.7,50.0,1007.6,178.9,0.6,1.7,230.3,0.33,13.6,21.1,"08:02:32",1
"16/05/24","08:20",0.0,25.7,48.5,1007.1,181.1,0.3,0.9,172.4,0.37,14.1,21.3,"08:19:28",1
"16/05/24","08:30",0.0,24.9,50.9,1007.4,98.9,0.6,1.6,350.4,0.23,14.1,21.7,"08:28:00",1
"16/05/24","08:40",0.0,25.7,49.5,1007.4,217.0,0.3,1.4,231.9,0.32,14.4,21.8,"08:36:48",1
"16/05/24","08:50",0.0,26.6,42.7,1007.6,171.4,0.7,2.1,189.3,0.43,12.9,22.2,"08:40:24",1
"16/05/24","09:00",0.0,26.4,41.5,1007.4,157.4,1.1,2.0,126.0,0.43,12.3,22.5,"08:54:24",1
"16/05/24","09:10",0.0,27.6,40.5,1007.6,194.8,0.7,1.8,200.3,0.46,13.0,22.6,"09:02:48",1
"16/05/24","09:20",0.0,27.5,39.1,1007.6,19.9,1.0,1.9,6.7,0.41,12.4,22.9,"09:13:12",1
"16/05/24","09:30",0.0,28.6,37.9,1007.8,174.7,0.3,1.6,351.9,0.51,12.9,23.3,"09:20:40",1
"16/05/24","09:40",0.0,27.7,41.1,1007.6,149.7,0.8,2.1,178.8,0.37,13.3,23.5,"09:30:02",1
"16/05/24","09:50",0.0,28.3,39.1,1007.4,174.2,1.2,3.3,216.3,0.51,13.1,23.7,"09:45:52",1
"16/05/24","10:00",0.0,28.5,36.8,1007.8,137.1,1.1,2.5,122.1,0.53,12.4,24.2,"09:52:08",1
"16/05/24","10:10",0.0,28.7,35.3,1007.6,160.5,1.8,3.9,212.3,0.55,11.9,24.3,"10:04:48",1
"16/05/24","10:20",0.0,29.3,37.0,1007.4,175.9,1.2,3.2,211.2,0.58,13.2,24.6,"10:17:04",1
"16/05/24","10:30",0.0,28.4,38.3,1007.4,155.4,1.1,3.1,203.7,0.31,12.9,25.0,"10:24:48",1
"16/05/24","10:40",0.0,29.0,39.4,1006.7,132.1,1.2,2.6,131.8,0.36,13.9,24.9,"10:31:36",1
"16/05/24","10:50",0.0,29.9,36.1,1007.1,168.6,1.3,2.4,226.7,0.51,13.3,25.3,"10:45:04",1
"16/05/24","11:00",0.0,30.7,35.1,1007.1,159.9,1.3,2.6,203.6,0.61,13.6,25.6,"10:50:02",1
"16/05/24","11:10",0.0,30.8,34.4,1007.4,146.7,1.5,3.2,124.5,0.64,13.4,26.0,"11:07:04",1
"16/05/24","11:20",0.0,30.1,33.4,1006.4,149.3,1.7,3.6,174.0,0.53,12.3,26.1,"11:10:24",1
"16/05/24","11:30",0.0,30.7,30.2,1006.9,154.3,1.5,3.7,209.6,0.54,11.3,26.3,"11:28:40",1
"16/05/24","11:40",0.0,31.0,29.9,1006.4,185.5,2.3,4.4,121.3,0.63,11.4,26.6,"11:34:00",1
"16/05/24","11:50",0.0,30.5,30.9,1006.7,205.1,1.7,3.9,195.6,0.48,11.5,26.8,"11:49:36",1
"16/05/24","12:00",0.0,30.3,34.8,1006.0,188.7,2.0,4.9,204.4,0.39,13.1,26.7,"11:51:20",1
"16/05/24","12:10",0.0,31.5,31.5,1006.2,188.4,2.3,5.5,205.7,0.66,12.6,27.1,"12:05:04",1
"16/05/24","12:20",0.0,31.1,31.2,1006.4,233.0,1.1,3.6,232.3,0.45,12.1,27.3,"12:18:56",1
"16/05/24","12:30",0.0,30.4,33.8,1006.0,222.9,1.3,3.4,232.8,0.27,12.7,27.3,"12:23:44",1
"16/05/24","12:40",0.0,30.7,31.2,1005.7,195.2,2.1,5.5,198.2,0.38,11.8,27.1,"12:35:44",1
"16/05/24","12:50",0.0,30.3,32.0,1005.5,185.0,2.6,4.1,187.0,0.26,11.8,27.1,"12:45:36",1
"16/05/24","13:00",0.0,30.0,29.4,1005.2,223.2,1.8,3.3,233.9,0.27,10.3,26.8,"12:53:20",1
"16/05/24","13:10",0.0,30.4,30.5,1005.2,228.6,1.5,3.1,204.5,0.35,11.2,27.1,"13:01:36",1
"16/05/24","13:20",0.0,31.5,28.6,1005.2,227.1,1.7,4.7,224.5,0.60,11.2,26.9,"13:18:40",1
"16/05/24","13:30",0.0,31.4,29.0,1006.0,232.3,1.3,4.8,224.6,0.59,11.3,27.1,"13:26:32",1
"16/05/24","13:40",0.0,31.1,30.8,1005.7,235.7,2.0,5.2,223.1,0.54,11.9,27.0,"13:32:16",1
"16/05/24","13:50",0.0,30.3,29.5,1005.5,242.6,1.6,4.3,228.7,0.37,10.6,27.0,"13:49:20",1
"16/05/24","14:00",0.0,31.1,28.8,1005.2,253.3,1.1,4.2,233.5,0.42,10.9,27.0,"13:56:08",1
"16/05/24","14:10",0.0,32.2,28.6,1005.0,317.9,0.7,2.4,211.8,0.54,11.8,27.0,"14:09:44",1
"16/05/24","14:20",0.0,32.1,28.9,1005.5,234.8,1.0,3.2,218.0,0.52,11.8,27.4,"14:12:48",1
"16/05/24","14:30",0.0,32.4,29.9,1005.2,351.9,0.8,2.8,357.6,0.49,12.6,27.2,"14:26:56",1
"16/05/24","14:40",0.0,32.0,27.3,1005.2,320.3,1.1,2.7,346.2,0.48,10.9,27.1,"14:38:16",1
"16/05/24","14:50",0.0,32.6,27.8,1004.8,202.8,0.8,2.9,181.7,0.44,11.7,27.2,"14:40:02",1
"16/05/24","15:00",0.0,31.7,30.4,1004.8,220.9,2.2,4.9,208.2,0.42,12.3,27.3,"14:54:16",1
"16/05/24","15:10",0.0,30.9,29.9,1004.5,249.6,1.8,4.9,242.3,0.36,11.3,27.3,"15:05:20",1
"16/05/24","15:20",0.0,30.1,30.4,1004.3,244.4,1.7,3.6,218.4,0.26,10.9,27.1,"15:10:02",1
"16/05/24","15:30",0.0,30.0,30.6,1004.1,233.2,1.7,4.5,223.9,0.25,10.9,27.2,"15:24:48",1
"16/05/24","15:40",0.0,29.7,31.7,1003.6,230.5,1.2,3.4,227.5,0.24,11.2,27.0,"15:32:00",1
"16/05/24","15:50",0.0,28.7,31.0,1003.4,238.4,1.6,3.9,226.0,0.14,10.0,26.8,"15:44:32",1
"16/05/24","16:00",0.0,28.4,31.8,1002.9,251.2,1.2,4.1,227.6,0.15,10.1,26.8,"15:51:04",1
"16/05/24","16:10",0.0,28.1,33.1,1003.1,248.8,1.2,3.9,227.1,0.11,10.4,26.9,"16:08:56",1
"16/05/24","16:20",0.0,28.1,32.8,1002.6,251.7,1.6,5.2,218.7,0.23,10.3,26.6,"16:10:48",1
"16/05/24","16:30",0.0,27.8,34.0,1002.6,241.1,1.3,4.4,235.6,0.10,10.6,26.2,"16:23:20",1
"16/05/24","16:40",0.0,27.3,34.6,1002.6,281.9,0.7,1.6,300.0,0.05,10.4,26.2,"16:30:56",1
"16/05/24","16:50",0.0,27.1,35.5,1002.4,274.7,0.6,1.6,219.1,0.07,10.6,26.2,"16:46:32",1
"16/05/24","17:00",0.0,26.8,36.9,1002.6,295.3,0.8,2.2,356.1,0.07,10.9,25.9,"16:50:40",1
"16/05/24","17:10",0.0,26.8,37.8,1003.4,289.1,0.8,2.7,215.3,0.08,11.3,26.0,"17:01:44",1
"16/05/24","17:20",0.0,26.5,39.7,1002.9,299.6,1.0,3.9,229.1,0.06,11.7,25.7,"17:15:36",1
"16/05/24","17:30",0.0,26.1,39.3,1003.1,325.4,1.2,3.2,356.7,0.04,11.2,25.8,"17:26:24",1
"16/05/24","17:40",0.0,25.7,39.6,1003.1,323.4,1.0,2.9,323.7,0.02,11.0,25.6,"17:36:48",1
"16/05/24","17:50",0.0,25.4,40.0,1003.1,296.8,0.8,1.8,348.2,0.02,10.9,25.4,"17:46:56",1
"16/05/24","18:00",0.0,25.3,40.5,1003.1,329.0,1.0,2.6,345.9,0.01,11.0,25.5,"17:57:04",1
"16/05/24","18:10",0.0,25.2,42.3,1003.6,335.8,1.1,2.2,347.3,0.02,11.5,25.1,"18:02:16",1
"16/05/24","18:20",0.0,24.9,42.4,1003.4,331.0,1.3,2.7,359.1,0.01,11.3,25.1,"18:12:08",1
"16/05/24","18:30",0.0,24.8,43.5,1003.6,320.8,0.8,2.0,311.3,0.00,11.6,25.0,"18:21:20",1
"16/05/24","18:40",0.0,24.5,44.7,1003.8,320.1,1.0,1.9,337.4,0.00,11.7,24.7,"18:33:28",1
"16/05/24","18:50",0.0,24.3,45.4,1003.6,309.3,1.0,2.1,238.8,0.00,11.8,24.8,"18:40:40",1
"16/05/24","19:00",0.0,24.1,45.7,1004.1,326.6,1.0,2.2,356.4,0.00,11.7,24.5,"18:55:20",1
"16/05/24","19:10",0.0,23.9,46.2,1004.1,318.9,1.0,1.9,332.4,0.00,11.7,24.6,"19:01:28",1
"16/05/24","19:20",0.0,23.7,47.1,1004.3,340.4,1.2,2.2,352.5,0.00,11.8,24.3,"19:13:36",1
"16/05/24","19:30",0.0,23.5,45.8,1003.8,341.4,1.3,2.8,340.9,0.00,11.2,24.1,"19:29:20",1
"16/05/24","19:40",0.0,23.3,46.7,1004.8,302.9,1.0,2.4,340.7,0.00,11.3,24.0,"19:34:24",1
"16/05/24","19:50",0.0,23.3,47.0,1004.5,302.9,1.1,2.1,334.1,0.00,11.4,24.0,"19:48:08",1
"16/05/24","20:00",0.0,23.3,46.7,1004.8,304.1,1.2,2.5,286.6,0.00,11.3,23.7,"19:57:28",1
"16/05/24","20:10",0.0,23.3,46.4,1005.0,303.2,1.2,2.7,4.8,0.00,11.2,23.7,"20:03:52",1
"16/05/24","20:20",0.0,23.3,45.5,1005.2,308.1,1.3,2.2,336.6,0.00,10.9,23.5,"20:10:24",1
"16/05/24","20:30",0.0,23.3,45.1,1005.5,293.6,1.3,2.2,338.9,0.00,10.8,23.7,"20:23:36",1
"16/05/24","20:40",0.0,23.2,44.2,1005.2,292.9,1.2,2.0,320.2,0.00,10.4,23.4,"20:35:36",1
"16/05/24","20:50",0.0,23.2,46.5,1006.0,334.1,1.5,2.7,345.8,0.00,11.2,23.3,"20:49:52",1
"16/05/24","21:00",0.0,22.9,47.0,1005.5,348.1,1.3,2.9,342.5,0.00,11.0,23.2,"20:50:16",1
"16/05/24","21:10",0.0,22.8,47.0,1006.0,339.9,1.6,2.2,336.5,0.00,11.0,23.1,"21:09:28",1
"16/05/24","21:20",0.0,22.5,50.6,1005.7,327.7,1.2,2.7,327.8,0.00,11.8,23.2,"21:19:12",1
"16/05/24","21:30",0.0,21.9,51.0,1006.2,328.5,1.3,2.0,351.9,0.00,11.4,23.2,"21:23:52",1
"16/05/24","21:40",0.0,21.9,52.5,1006.0,344.6,0.7,1.4,352.3,0.00,11.8,23.1,"21:31:44",1
"16/05/24","21:50",0.0,21.7,52.4,1006.2,337.7,1.2,2.0,351.8,0.00,11.6,22.9,"21:47:44",1
"16/05/24","22:00",0.0,21.7,53.5,1006.2,348.2,1.2,2.1,15.1,0.00,11.9,22.7,"21:54:08",1
"16/05/24","22:10",0.0,21.4,52.0,1006.2,323.0,1.2,1.9,337.0,0.00,11.2,22.7,"22:01:04",1
"16/05/24","22:20",0.0,21.8,52.5,1006.2,333.9,1.6,2.5,349.8,0.00,11.7,22.7,"22:13:04",1
"16/05/24","22:30",0.0,21.5,54.6,1006.2,297.1,0.8,1.7,333.9,0.00,12.0,22.5,"22:20:32",1
"16/05/24","22:40",0.0,21.2,55.7,1006.2,322.8,1.0,1.4,336.9,0.00,12.0,22.4,"22:33:12",1
"16/05/24","22:50",0.0,20.9,57.8,1006.2,54.2,0.3,1.2,329.4,0.00,12.3,22.4,"22:49:52",1
"16/05/24","23:00",0.0,20.8,58.0,1006.4,301.3,0.7,1.3,332.1,0.00,12.3,22.4,"22:50:16",1
"16/05/24","23:10",0.0,20.7,59.5,1005.7,321.9,1.3,2.6,338.3,0.00,12.6,22.1,"23:03:28",1
"16/05/24","23:20",0.0,20.6,60.3,1006.0,324.8,0.8,1.4,325.7,0.00,12.7,22.2,"23:10:02",1
"16/05/24","23:30",0.0,20.5,59.6,1005.7,326.2,1.0,1.7,318.7,0.00,12.4,22.1,"23:21:44",1
"16/05/24","23:40",0.0,20.5,59.0,1006.2,324.7,1.2,1.7,336.8,0.00,12.3,22.1,"23:31:44",1
"16/05/24","23:50",0.0,20.3,57.6,1006.0,318.0,1.1,1.6,323.8,0.00,11.7,22.0,"23:48:32",1
"16/05/24","24:00",0.0,20.5,58.6,1006.4,331.5,1.2,1.9,331.3,0.00,12.2,22.1,"23:52:16",1
